"read_dt","SO2 (ppb)","flags","PMT voltage (V)","lamp voltage (V)","lamp intensity (Hz)","internal temp (C)","react chamber temp (C)","sample flow (l/min)","pres (mmHg)","SO2 bkg (ppb)","SO2 coefficient"
2014-04-09 00:00:00,3005E-2,5C000400,-0724,0982,10859,027.6,045.3,0.148,749.2,01.17,0.508
2014-04-09 00:01:00,3061E-2,5C000400,-0724,0981,10706,027.6,045.3,0.148,749.2,01.17,0.508
2014-04-09 00:02:00,3036E-2,5C000400,-0724,0981,10756,027.6,045.3,0.148,749.2,01.17,0.508
2014-04-09 00:03:00,3031E-2,5C000400,-0724,0982,10693,027.6,045.3,0.148,749.2,01.17,0.508
2014-04-09 00:04:00,3061E-2,5C000400,-0724,0981,10652,027.6,045.3,0.148,749.1,01.17,0.508
2014-04-09 00:05:00,3070E-2,5C000400,-0724,0982,10736,027.6,045.3,0.148,749.1,01.17,0.508
2014-04-09 00:06:00,3067E-2,5C000400,-0724,0982,10653,027.6,045.3,0.148,749.0,01.17,0.508
2014-04-09 00:07:00,3057E-2,5C000400,-0724,0983,10652,027.6,045.3,0.148,749.1,01.17,0.508
2014-04-09 00:08:00,3079E-2,5C000400,-0724,0983,10594,027.5,045.3,0.148,748.9,01.17,0.508
2014-04-09 00:09:00,3077E-2,5C000400,-0724,0981,10735,027.5,045.3,0.148,749.0,01.17,0.508
2014-04-09 00:10:00,3114E-2,5C000400,-0724,0982,10722,027.5,045.3,0.148,749.0,01.17,0.508
2014-04-09 00:11:00,3138E-2,5C000400,-0724,0982,10504,027.5,045.3,0.148,749.0,01.17,0.508
2014-04-09 00:12:00,3094E-2,5C000400,-0724,0981,10741,027.6,045.3,0.148,749.0,01.17,0.508
2014-04-09 00:13:00,3114E-2,5C000400,-0724,0982,10803,027.5,045.3,0.148,748.9,01.17,0.508
2014-04-09 00:14:00,3124E-2,5C000400,-0724,0982,10641,027.5,045.3,0.148,748.9,01.17,0.508
2014-04-09 00:15:00,3136E-2,5C000400,-0724,0983,10654,027.5,045.3,0.148,748.9,01.17,0.508
2014-04-09 00:16:00,3110E-2,5C000400,-0724,0981,10719,027.5,045.3,0.148,748.9,01.17,0.508
2014-04-09 00:17:00,3105E-2,5C000400,-0724,0982,10679,027.5,045.3,0.148,748.9,01.17,0.508
2014-04-09 00:18:00,3141E-2,5C000400,-0724,0982,10579,027.5,045.3,0.148,748.9,01.17,0.508
2014-04-09 00:19:00,3134E-2,5C000400,-0724,0982,10465,027.5,045.3,0.148,748.8,01.17,0.508
2014-04-09 00:20:00,3127E-2,5C000400,-0724,0983,10711,027.5,045.3,0.148,748.8,01.17,0.508
2014-04-09 00:21:00,3090E-2,5C000400,-0724,0982,10757,027.5,045.3,0.148,748.7,01.17,0.508
2014-04-09 00:22:00,3114E-2,5C000400,-0724,0982,10683,027.5,045.3,0.148,748.8,01.17,0.508
2014-04-09 00:23:00,3124E-2,5C000400,-0724,0982,10725,027.5,045.3,0.148,748.8,01.17,0.508
2014-04-09 00:24:00,3086E-2,5C000400,-0724,0982,10566,027.5,045.3,0.148,748.8,01.17,0.508
2014-04-09 00:25:00,3119E-2,5C000400,-0724,0981,10774,027.5,045.3,0.148,748.8,01.17,0.508
2014-04-09 00:26:00,3107E-2,5C000400,-0724,0983,10750,027.5,045.3,0.148,748.7,01.17,0.508
2014-04-09 00:27:00,3132E-2,5C000400,-0724,0982,10640,027.5,045.3,0.148,748.7,01.17,0.508
2014-04-09 00:28:00,3120E-2,5C000400,-0724,0983,10811,027.5,045.3,0.148,748.7,01.17,0.508
2014-04-09 00:29:00,3114E-2,5C000400,-0724,0982,10597,027.5,045.3,0.148,748.7,01.17,0.508
2014-04-09 00:30:00,3120E-2,5C000400,-0724,0982,10734,027.5,045.3,0.148,748.6,01.17,0.508
2014-04-09 00:31:00,3158E-2,5C000400,-0724,0982,10713,027.4,045.3,0.148,748.7,01.17,0.508
2014-04-09 00:32:00,3116E-2,5C000400,-0724,0982,10561,027.4,045.3,0.148,748.6,01.17,0.508
2014-04-09 00:33:00,3159E-2,5C000400,-0724,0981,10680,027.5,045.3,0.148,748.7,01.17,0.508
2014-04-09 00:34:00,3157E-2,5C000400,-0724,0982,10594,027.4,045.3,0.148,748.7,01.17,0.508
2014-04-09 00:35:00,3141E-2,5C000400,-0724,0981,10654,027.4,045.3,0.148,748.6,01.17,0.508
2014-04-09 00:36:00,3119E-2,5C000400,-0724,0981,10588,027.4,045.3,0.148,748.6,01.17,0.508
2014-04-09 00:37:00,3151E-2,5C000400,-0724,0983,10601,027.4,045.3,0.148,748.7,01.17,0.508
2014-04-09 00:38:00,3140E-2,5C000400,-0724,0981,10684,027.4,045.3,0.148,748.6,01.17,0.508
2014-04-09 00:39:00,3117E-2,5C000400,-0724,0980,10617,027.4,045.3,0.148,748.6,01.17,0.508
2014-04-09 00:40:00,3156E-2,5C000400,-0724,0981,10772,027.4,045.3,0.148,748.6,01.17,0.508
2014-04-09 00:41:00,3156E-2,5C000400,-0724,0981,10785,027.4,045.3,0.148,748.6,01.17,0.508
2014-04-09 00:42:00,3154E-2,5C000400,-0724,0981,10738,027.4,045.3,0.148,748.5,01.17,0.508
2014-04-09 00:43:00,3165E-2,5C000400,-0724,0982,10481,027.4,045.3,0.148,748.5,01.17,0.508
2014-04-09 00:44:00,3119E-2,5C000400,-0724,0980,10853,027.4,045.3,0.148,748.5,01.17,0.508
2014-04-09 00:45:00,3184E-2,5C000400,-0724,0981,10547,027.4,045.3,0.149,748.6,01.17,0.508
2014-04-09 00:46:00,3142E-2,5C000400,-0724,0981,10710,027.4,045.3,0.149,748.5,01.17,0.508
2014-04-09 00:47:00,3148E-2,5C000400,-0724,0980,10675,027.4,045.3,0.149,748.4,01.17,0.508
2014-04-09 00:48:00,3145E-2,5C000400,-0724,0981,10701,027.4,045.3,0.149,748.5,01.17,0.508
2014-04-09 00:49:00,3164E-2,5C000400,-0724,0982,10508,027.4,045.3,0.148,748.5,01.17,0.508
2014-04-09 00:50:00,3179E-2,5C000400,-0724,0981,10721,027.4,045.3,0.149,748.4,01.17,0.508
2014-04-09 00:51:00,3150E-2,5C000400,-0724,0981,10734,027.4,045.3,0.148,748.5,01.17,0.508
2014-04-09 00:52:00,3163E-2,5C000400,-0724,0981,10679,027.4,045.3,0.148,748.5,01.17,0.508
2014-04-09 00:53:00,3107E-2,5C000400,-0724,0982,10738,027.4,045.3,0.149,748.5,01.17,0.508
2014-04-09 00:54:00,3145E-2,5C000400,-0724,0982,10763,027.3,045.3,0.149,748.5,01.17,0.508
2014-04-09 00:55:00,3156E-2,5C000400,-0724,0981,10729,027.3,045.3,0.148,748.5,01.17,0.508
2014-04-09 00:56:00,3137E-2,5C000400,-0724,0982,10728,027.4,045.3,0.149,748.5,01.17,0.508
2014-04-09 00:57:00,3147E-2,5C000400,-0724,0982,10705,027.4,045.3,0.149,748.4,01.17,0.508
2014-04-09 00:58:00,3185E-2,5C000400,-0724,0982,10721,027.4,045.3,0.149,748.4,01.17,0.508
2014-04-09 00:59:00,3188E-2,5C000400,-0724,0983,10696,027.4,045.3,0.149,748.4,01.17,0.508
2014-04-09 01:00:00,3171E-2,5C000400,-0724,0982,10850,027.4,045.3,0.149,748.4,01.17,0.508
2014-04-09 01:01:00,3184E-2,5C000400,-0724,0982,10696,027.4,045.3,0.149,748.3,01.17,0.508
2014-04-09 01:02:00,3196E-2,5C000400,-0724,0983,10777,027.3,045.3,0.149,748.4,01.17,0.508
2014-04-09 01:03:00,3158E-2,5C000400,-0724,0981,10779,027.3,045.3,0.149,748.3,01.17,0.508
2014-04-09 01:04:00,3115E-2,5C000400,-0724,0981,10700,027.3,045.3,0.149,748.3,01.17,0.508
2014-04-09 01:05:00,3177E-2,5C000400,-0724,0981,10741,027.3,045.3,0.149,748.3,01.17,0.508
2014-04-09 01:06:00,3206E-2,5C000400,-0724,0981,10566,027.3,045.3,0.149,748.3,01.17,0.508
2014-04-09 01:07:00,3161E-2,5C000400,-0724,0982,10761,027.3,045.3,0.149,748.2,01.17,0.508
2014-04-09 01:08:00,3199E-2,5C000400,-0724,0982,10737,027.3,045.3,0.149,748.2,01.17,0.508
2014-04-09 01:09:00,3189E-2,5C000400,-0724,0981,10646,027.3,045.3,0.149,748.2,01.17,0.508
2014-04-09 01:10:00,3172E-2,5C000400,-0724,0981,10612,027.3,045.3,0.149,748.2,01.17,0.508
2014-04-09 01:11:00,3200E-2,5C000400,-0724,0983,10737,027.3,045.3,0.149,748.2,01.17,0.508
2014-04-09 01:12:00,3171E-2,5C000400,-0724,0982,10697,027.3,045.3,0.149,748.2,01.17,0.508
2014-04-09 01:13:00,3191E-2,5C000400,-0724,0981,10841,027.4,045.3,0.149,748.1,01.17,0.508
2014-04-09 01:14:00,3193E-2,5C000400,-0724,0983,10776,027.3,045.3,0.149,748.1,01.17,0.508
2014-04-09 01:15:00,3181E-2,5C000400,-0724,0984,10842,027.3,045.3,0.149,748.1,01.17,0.508
2014-04-09 01:16:00,3199E-2,5C000400,-0724,0981,10775,027.3,045.3,0.149,748.1,01.17,0.508
2014-04-09 01:17:00,3163E-2,5C000400,-0724,0982,10790,027.3,045.3,0.149,748.1,01.17,0.508
2014-04-09 01:18:00,3190E-2,5C000400,-0724,0982,10793,027.3,045.3,0.149,748.1,01.17,0.508
2014-04-09 01:19:00,3198E-2,5C000400,-0724,0981,10718,027.3,045.3,0.149,748.1,01.17,0.508
2014-04-09 01:20:00,3217E-2,5C000400,-0724,0982,10804,027.3,045.3,0.149,748.1,01.17,0.508
2014-04-09 01:21:00,3187E-2,5C000400,-0724,0982,10835,027.3,045.3,0.149,748.1,01.17,0.508
2014-04-09 01:22:00,3159E-2,5C000400,-0724,0981,10701,027.3,045.3,0.149,748.0,01.17,0.508
2014-04-09 01:23:00,3181E-2,5C000400,-0724,0982,10814,027.3,045.3,0.149,748.0,01.17,0.508
2014-04-09 01:24:00,3181E-2,5C000400,-0724,0981,10678,027.3,045.3,0.149,748.0,01.17,0.508
2014-04-09 01:25:00,3242E-2,5C000400,-0724,0982,10672,027.3,045.3,0.149,748.2,01.17,0.508
2014-04-09 01:26:00,3173E-2,5C000400,-0724,0980,10719,027.3,045.3,0.149,748.1,01.17,0.508
2014-04-09 01:27:00,3204E-2,5C000400,-0724,0983,10724,027.3,045.3,0.149,748.1,01.17,0.508
2014-04-09 01:28:00,3171E-2,5C000400,-0724,0983,10767,027.3,045.3,0.149,748.0,01.17,0.508
2014-04-09 01:29:00,3189E-2,5C000400,-0724,0982,10805,027.3,045.3,0.149,748.1,01.17,0.508
2014-04-09 01:30:00,3242E-2,5C000400,-0724,0982,10666,027.3,045.3,0.149,748.1,01.17,0.508
2014-04-09 01:31:00,3187E-2,5C000400,-0724,0981,10656,027.3,045.3,0.149,748.1,01.17,0.508
2014-04-09 01:32:00,3240E-2,5C000400,-0724,0981,10648,027.3,045.3,0.149,748.1,01.17,0.508
2014-04-09 01:33:00,3208E-2,5C000400,-0724,0982,10690,027.3,045.3,0.149,748.0,01.17,0.508
2014-04-09 01:34:00,3212E-2,5C000400,-0724,0982,10632,027.3,045.3,0.149,748.1,01.17,0.508
2014-04-09 01:35:00,3256E-2,5C000400,-0724,0982,10748,027.3,045.3,0.149,748.1,01.17,0.508
2014-04-09 01:36:00,3210E-2,5C000400,-0724,0982,10742,027.3,045.3,0.149,748.0,01.17,0.508
2014-04-09 01:37:00,3212E-2,5C000400,-0724,0983,10591,027.3,045.3,0.149,747.9,01.17,0.508
2014-04-09 01:38:00,3199E-2,5C000400,-0724,0982,10732,027.3,045.3,0.149,748.0,01.17,0.508
2014-04-09 01:39:00,3207E-2,5C000400,-0724,0981,10716,027.3,045.3,0.149,747.8,01.17,0.508
2014-04-09 01:40:00,3200E-2,5C000400,-0724,0982,10676,027.3,045.3,0.149,747.9,01.17,0.508
2014-04-09 01:41:00,3210E-2,5C000400,-0724,0981,10587,027.3,045.3,0.149,747.8,01.17,0.508
2014-04-09 01:42:00,3197E-2,5C000400,-0724,0982,10736,027.3,045.3,0.149,747.9,01.17,0.508
2014-04-09 01:43:00,3246E-2,5C000400,-0724,0982,10748,027.3,045.3,0.149,747.8,01.17,0.508
2014-04-09 01:44:00,3236E-2,5C000400,-0724,0981,10593,027.3,045.3,0.149,747.8,01.17,0.508
2014-04-09 01:45:00,3240E-2,5C000400,-0724,0983,10722,027.3,045.3,0.149,747.8,01.17,0.508
2014-04-09 01:46:00,3245E-2,5C000400,-0724,0983,10647,027.3,045.3,0.149,747.8,01.17,0.508
2014-04-09 01:47:00,3234E-2,5C000400,-0724,0982,10736,027.3,045.3,0.149,747.8,01.17,0.508
2014-04-09 01:48:00,3233E-2,5C000400,-0724,0982,10709,027.3,045.3,0.149,747.8,01.17,0.508
2014-04-09 01:49:00,3241E-2,5C000400,-0724,0983,10672,027.3,045.3,0.149,747.8,01.17,0.508
2014-04-09 01:50:00,3233E-2,5C000400,-0724,0983,10902,027.3,045.3,0.149,747.8,01.17,0.508
2014-04-09 01:51:00,3223E-2,5C000400,-0724,0982,10695,027.3,045.3,0.149,747.8,01.17,0.508
2014-04-09 01:52:00,3279E-2,5C000400,-0724,0982,10782,027.3,045.3,0.149,747.8,01.17,0.508
2014-04-09 01:53:00,3266E-2,5C000400,-0724,0983,10759,027.3,045.3,0.149,747.7,01.17,0.508
2014-04-09 01:54:00,3233E-2,5C000400,-0724,0984,10795,027.3,045.3,0.149,747.7,01.17,0.508
2014-04-09 01:55:00,3262E-2,5C000400,-0724,0982,10537,027.3,045.3,0.149,747.7,01.17,0.508
2014-04-09 01:56:00,3244E-2,5C000400,-0724,0982,10711,027.2,045.3,0.149,747.7,01.17,0.508
2014-04-09 01:57:00,3233E-2,5C000400,-0724,0983,10718,027.2,045.3,0.149,747.7,01.17,0.508
2014-04-09 01:58:00,3215E-2,5C000400,-0724,0982,10714,027.3,045.3,0.149,747.5,01.17,0.508
2014-04-09 01:59:00,3247E-2,5C000400,-0724,0983,10736,027.3,045.3,0.149,747.6,01.17,0.508
2014-04-09 02:00:00,3245E-2,5C000400,-0724,0983,10638,027.3,045.3,0.149,747.6,01.17,0.508
2014-04-09 02:01:00,3271E-2,5C000400,-0724,0984,10663,027.3,045.3,0.149,747.5,01.17,0.508
2014-04-09 02:02:00,3212E-2,5C000400,-0724,0983,10728,027.3,045.3,0.149,747.4,01.17,0.508
2014-04-09 02:03:00,3194E-2,5C000400,-0724,0982,10560,027.3,045.3,0.149,747.6,01.17,0.508
2014-04-09 02:04:00,3242E-2,5C000400,-0724,0982,10756,027.3,045.3,0.149,747.6,01.17,0.508
2014-04-09 02:05:00,3248E-2,5C000400,-0724,0983,10572,027.3,045.3,0.149,747.5,01.17,0.508
2014-04-09 02:06:00,3266E-2,5C000400,-0724,0983,10581,027.3,045.3,0.149,747.4,01.17,0.508
2014-04-09 02:07:00,3216E-2,5C000400,-0724,0984,10646,027.3,045.3,0.149,747.3,01.17,0.508
2014-04-09 02:08:00,3265E-2,5C000400,-0724,0983,10731,027.3,045.3,0.149,747.4,01.17,0.508
2014-04-09 02:09:00,3218E-2,5C000400,-0724,0984,10641,027.3,045.3,0.149,747.3,01.17,0.508
2014-04-09 02:10:00,3240E-2,5C000400,-0724,0983,10737,027.3,045.3,0.149,747.3,01.17,0.508
2014-04-09 02:11:00,3251E-2,5C000400,-0724,0983,10517,027.3,045.3,0.149,747.3,01.17,0.508
2014-04-09 02:12:00,3239E-2,5C000400,-0724,0984,10636,027.3,045.3,0.149,747.3,01.17,0.508
2014-04-09 02:13:00,3246E-2,5C000400,-0724,0983,10725,027.3,045.3,0.149,747.3,01.17,0.508
2014-04-09 02:14:00,3239E-2,5C000400,-0724,0983,10688,027.3,045.3,0.149,747.3,01.17,0.508
2014-04-09 02:15:00,3254E-2,5C000400,-0724,0984,10612,027.3,045.3,0.149,747.2,01.17,0.508
2014-04-09 02:16:00,3235E-2,5C000400,-0724,0982,10763,027.3,045.3,0.149,747.2,01.17,0.508
2014-04-09 02:17:00,3235E-2,5C000400,-0724,0984,10708,027.3,045.3,0.149,747.2,01.17,0.508
2014-04-09 02:18:00,3173E-2,5C000400,-0724,0984,10692,027.3,045.3,0.149,747.3,01.17,0.508
2014-04-09 02:19:00,3271E-2,5C000400,-0724,0985,10719,027.3,045.3,0.149,747.3,01.17,0.508
2014-04-09 02:20:00,3214E-2,5C000400,-0724,0984,10698,027.2,045.3,0.149,747.2,01.17,0.508
2014-04-09 02:21:00,3252E-2,5C000400,-0724,0985,10537,027.2,045.3,0.149,747.2,01.17,0.508
2014-04-09 02:22:00,3254E-2,5C000400,-0724,0984,10763,027.2,045.3,0.149,747.2,01.17,0.508
2014-04-09 02:23:00,3263E-2,5C000400,-0724,0984,10695,027.2,045.3,0.149,747.3,01.17,0.508
2014-04-09 02:24:00,3202E-2,5C000400,-0724,0985,10645,027.3,045.3,0.149,747.2,01.17,0.508
2014-04-09 02:25:00,3235E-2,5C000400,-0724,0984,10725,027.2,045.3,0.149,747.2,01.17,0.508
2014-04-09 02:26:00,3244E-2,5C000400,-0724,0984,10570,027.3,045.3,0.149,747.2,01.17,0.508
2014-04-09 02:27:00,3251E-2,5C000400,-0724,0984,10753,027.3,045.3,0.149,747.2,01.17,0.508
2014-04-09 02:28:00,3226E-2,5C000400,-0724,0984,10627,027.2,045.3,0.149,747.2,01.17,0.508
2014-04-09 02:29:00,3276E-2,5C000400,-0724,0985,10786,027.3,045.3,0.149,747.2,01.17,0.508
2014-04-09 02:30:00,3255E-2,5C000400,-0724,0984,10653,027.2,045.3,0.149,747.1,01.17,0.508
2014-04-09 02:31:00,3243E-2,5C000400,-0724,0987,10457,027.3,045.3,0.149,747.1,01.17,0.508
2014-04-09 02:32:00,3296E-2,5C000400,-0724,0986,10653,027.3,045.3,0.149,747.1,01.17,0.508
2014-04-09 02:33:00,3252E-2,5C000400,-0724,0988,10475,027.3,045.3,0.149,747.0,01.17,0.508
2014-04-09 02:34:00,3246E-2,5C000400,-0724,0989,10596,027.3,045.3,0.149,747.0,01.17,0.508
2014-04-09 02:35:00,3276E-2,5C000400,-0724,0989,10611,027.3,045.3,0.149,747.0,01.17,0.508
2014-04-09 02:36:00,3314E-2,5C000400,-0724,0990,10559,027.3,045.3,0.149,746.8,01.17,0.508
2014-04-09 02:37:00,3255E-2,5C000400,-0724,0991,10307,027.3,045.3,0.149,746.8,01.17,0.508
2014-04-09 02:38:00,3309E-2,5C000400,-0724,0992,10667,027.3,045.3,0.149,746.8,01.17,0.508
2014-04-09 02:39:00,3298E-2,5C000400,-0724,0992,10605,027.3,045.3,0.149,746.9,01.17,0.508
2014-04-09 02:40:00,3284E-2,5C000400,-0724,0993,10726,027.3,045.3,0.149,746.7,01.17,0.508
2014-04-09 02:41:00,3309E-2,5C000400,-0724,0993,10558,027.3,045.3,0.149,746.8,01.17,0.508
2014-04-09 02:42:00,3297E-2,5C000400,-0724,0993,10647,027.3,045.3,0.149,746.8,01.17,0.508
2014-04-09 02:43:00,3312E-2,5C000400,-0724,0993,10658,027.3,045.3,0.149,746.7,01.17,0.508
2014-04-09 02:44:00,3290E-2,5C000400,-0724,0994,10688,027.3,045.3,0.149,746.8,01.17,0.508
2014-04-09 02:45:00,3262E-2,5C000400,-0724,0996,10697,027.3,045.3,0.149,746.7,01.17,0.508
2014-04-09 02:46:00,3295E-2,5C000400,-0724,0994,10609,027.3,045.3,0.149,746.7,01.17,0.508
2014-04-09 02:47:00,3294E-2,5C000400,-0724,0995,10587,027.3,045.3,0.149,746.7,01.17,0.508
2014-04-09 02:48:00,3273E-2,5C000400,-0724,0995,10529,027.3,045.3,0.149,746.7,01.17,0.508
2014-04-09 02:49:00,3316E-2,5C000400,-0724,0995,10554,027.3,045.3,0.149,746.7,01.17,0.508
2014-04-09 02:50:00,3309E-2,5C000400,-0724,0995,10407,027.3,045.3,0.149,746.7,01.17,0.508
2014-04-09 02:51:00,3289E-2,5C000400,-0724,0996,10608,027.3,045.3,0.149,746.7,01.17,0.508
2014-04-09 02:52:00,3272E-2,5C000400,-0724,0997,10739,027.3,045.3,0.149,746.6,01.17,0.508
2014-04-09 02:53:00,3319E-2,5C000400,-0724,0995,10412,027.3,045.3,0.149,746.6,01.17,0.508
2014-04-09 02:54:00,3294E-2,5C000400,-0724,0996,10657,027.3,045.3,0.149,746.6,01.17,0.508
2014-04-09 02:55:00,3320E-2,5C000400,-0724,0996,10498,027.3,045.3,0.149,746.7,01.17,0.508
2014-04-09 02:56:00,3343E-2,5C000400,-0724,0996,10581,027.3,045.3,0.149,746.6,01.17,0.508
2014-04-09 02:57:00,3337E-2,5C000400,-0724,0996,10534,027.3,045.3,0.149,746.6,01.17,0.508
2014-04-09 02:58:00,3310E-2,5C000400,-0724,0996,10502,027.3,045.3,0.149,746.7,01.17,0.508
2014-04-09 02:59:00,3301E-2,5C000400,-0724,0997,10621,027.3,045.3,0.149,746.6,01.17,0.508
2014-04-09 03:00:00,3348E-2,5C000400,-0724,0996,10628,027.3,045.3,0.149,746.6,01.17,0.508
2014-04-09 03:01:00,3320E-2,5C000400,-0724,0998,10673,027.3,045.3,0.149,746.7,01.17,0.508
2014-04-09 03:02:00,3315E-2,5C000400,-0724,0996,10570,027.3,045.3,0.149,746.7,01.17,0.508
2014-04-09 03:03:00,3376E-2,5C000400,-0724,0997,10381,027.3,045.3,0.149,746.7,01.17,0.508
2014-04-09 03:04:00,3273E-2,5C000400,-0724,0997,10495,027.3,045.3,0.149,746.6,01.17,0.508
2014-04-09 03:05:00,3297E-2,5C000400,-0724,0996,10547,027.3,045.3,0.149,746.7,01.17,0.508
2014-04-09 03:06:00,3288E-2,5C000400,-0724,0998,10611,027.3,045.3,0.149,746.7,01.17,0.508
2014-04-09 03:07:00,3355E-2,5C000400,-0724,0997,10661,027.3,045.3,0.149,746.6,01.17,0.508
2014-04-09 03:08:00,3312E-2,5C000400,-0724,0997,10567,027.3,045.3,0.149,746.5,01.17,0.508
2014-04-09 03:09:00,3347E-2,5C000400,-0724,0997,10380,027.3,045.3,0.149,746.7,01.17,0.508
2014-04-09 03:10:00,3333E-2,5C000400,-0724,0997,10553,027.3,045.3,0.149,746.7,01.17,0.508
2014-04-09 03:11:00,3366E-2,5C000400,-0724,0996,10623,027.3,045.3,0.149,746.6,01.17,0.508
2014-04-09 03:12:00,3343E-2,5C000400,-0724,0997,10501,027.3,045.3,0.149,746.6,01.17,0.508
2014-04-09 03:13:00,3323E-2,5C000400,-0724,0997,10475,027.3,045.3,0.149,746.5,01.17,0.508
2014-04-09 03:14:00,3279E-2,5C000400,-0724,0996,10486,027.3,045.3,0.149,746.5,01.17,0.508
2014-04-09 03:15:00,3295E-2,5C000400,-0724,0997,10610,027.3,045.3,0.149,746.6,01.17,0.508
2014-04-09 03:16:00,3303E-2,5C000400,-0724,0997,10404,027.3,045.3,0.149,746.6,01.17,0.508
2014-04-09 03:17:00,3352E-2,5C000400,-0724,0996,10444,027.3,045.3,0.149,746.5,01.17,0.508
2014-04-09 03:18:00,3351E-2,5C000400,-0724,0996,10630,027.3,045.3,0.149,746.6,01.17,0.508
2014-04-09 03:19:00,3345E-2,5C000400,-0724,0997,10560,027.3,045.3,0.149,746.5,01.17,0.508
2014-04-09 03:20:00,3290E-2,5C000400,-0724,0998,10525,027.3,045.3,0.149,746.5,01.17,0.508
2014-04-09 03:21:00,3290E-2,5C000400,-0724,0997,10628,027.3,045.3,0.149,746.5,01.17,0.508
2014-04-09 03:22:00,3271E-2,5C000400,-0724,0999,10578,027.3,045.3,0.149,746.5,01.17,0.508
2014-04-09 03:23:00,3293E-2,5C000400,-0724,0997,10666,027.3,045.3,0.149,746.5,01.17,0.508
2014-04-09 03:24:00,3338E-2,5C000400,-0724,0997,10630,027.3,045.3,0.149,746.5,01.17,0.508
2014-04-09 03:25:00,3324E-2,5C000400,-0724,0997,10636,027.3,045.3,0.149,746.5,01.17,0.508
2014-04-09 03:26:00,3326E-2,5C000400,-0724,0997,10581,027.3,045.3,0.149,746.5,01.17,0.508
2014-04-09 03:27:00,3304E-2,5C000400,-0724,0998,10522,027.3,045.3,0.149,746.5,01.17,0.508
2014-04-09 03:28:00,3328E-2,5C000400,-0724,0996,10603,027.4,045.3,0.149,746.5,01.17,0.508
2014-04-09 03:29:00,3320E-2,5C000400,-0724,0997,10484,027.3,045.3,0.149,746.5,01.17,0.508
2014-04-09 03:30:00,3302E-2,5C000400,-0724,0994,10562,027.4,045.3,0.149,746.5,01.17,0.508
2014-04-09 03:31:00,3292E-2,5C000400,-0724,0994,10570,027.4,045.3,0.149,746.5,01.17,0.508
2014-04-09 03:32:00,3311E-2,5C000400,-0724,0995,10591,027.4,045.3,0.149,746.5,01.17,0.508
2014-04-09 03:33:00,3335E-2,5C000400,-0724,0993,10571,027.4,045.3,0.149,746.5,01.17,0.508
2014-04-09 03:34:00,3311E-2,5C000400,-0724,0993,10613,027.4,045.3,0.149,746.5,01.17,0.508
2014-04-09 03:35:00,3254E-2,5C000400,-0724,0992,10633,027.4,045.3,0.149,746.5,01.17,0.508
2014-04-09 03:36:00,3290E-2,5C000400,-0724,0992,10507,027.4,045.3,0.149,746.5,01.17,0.508
2014-04-09 03:37:00,3269E-2,5C000400,-0724,0991,10550,027.4,045.3,0.149,746.5,01.17,0.508
2014-04-09 03:38:00,3270E-2,5C000400,-0724,0991,10667,027.4,045.3,0.149,746.4,01.17,0.508
2014-04-09 03:39:00,3261E-2,5C000400,-0724,0991,10402,027.4,045.3,0.149,746.5,01.17,0.508
2014-04-09 03:40:00,3279E-2,5C000400,-0724,0991,10724,027.4,045.3,0.149,746.3,01.17,0.508
2014-04-09 03:41:00,3271E-2,5C000400,-0724,0992,10679,027.4,045.3,0.149,746.4,01.17,0.508
2014-04-09 03:42:00,3246E-2,5C000400,-0724,0991,10529,027.4,045.3,0.149,746.4,01.17,0.508
2014-04-09 03:43:00,3278E-2,5C000400,-0724,0990,10596,027.4,045.3,0.149,746.5,01.17,0.508
2014-04-09 03:44:00,3317E-2,5C000400,-0724,0990,10584,027.4,045.3,0.148,746.4,01.17,0.508
2014-04-09 03:45:00,3262E-2,5C000400,-0724,0991,10700,027.4,045.3,0.148,746.3,01.17,0.508
2014-04-09 03:46:00,3279E-2,5C000400,-0724,0990,10699,027.4,045.3,0.149,746.3,01.17,0.508
2014-04-09 03:47:00,3263E-2,5C000400,-0724,0989,10682,027.4,045.3,0.148,746.3,01.17,0.508
2014-04-09 03:48:00,3296E-2,5C000400,-0724,0990,10613,027.4,045.3,0.148,746.3,01.17,0.508
2014-04-09 03:49:00,3280E-2,5C000400,-0724,0990,10603,027.4,045.3,0.148,746.3,01.17,0.508
2014-04-09 03:50:00,3292E-2,5C000400,-0724,0989,10547,027.4,045.3,0.148,746.3,01.17,0.508
2014-04-09 03:51:00,3295E-2,5C000400,-0724,0988,10753,027.4,045.3,0.148,746.3,01.17,0.508
2014-04-09 03:52:00,3279E-2,5C000400,-0724,0989,10696,027.4,045.3,0.148,746.3,01.17,0.508
2014-04-09 03:53:00,3272E-2,5C000400,-0724,0988,10743,027.4,045.3,0.148,746.3,01.17,0.508
2014-04-09 03:54:00,3275E-2,5C000400,-0724,0987,10616,027.4,045.3,0.148,746.2,01.17,0.508
2014-04-09 03:55:00,3300E-2,5C000400,-0724,0988,10511,027.4,045.3,0.148,746.3,01.17,0.508
2014-04-09 03:56:00,3295E-2,5C000400,-0724,0989,10704,027.4,045.3,0.148,746.2,01.17,0.508
2014-04-09 03:57:00,3262E-2,5C000400,-0724,0988,10686,027.4,045.3,0.148,746.2,01.17,0.508
2014-04-09 03:58:00,3279E-2,5C000400,-0724,0988,10773,027.4,045.3,0.148,746.3,01.17,0.508
2014-04-09 03:59:00,3292E-2,5C000400,-0724,0987,10533,027.4,045.3,0.148,746.3,01.17,0.508
2014-04-09 04:00:00,3246E-2,5C000400,-0724,0987,10602,027.4,045.3,0.148,746.2,01.17,0.508
2014-04-09 04:01:00,3271E-2,5C000400,-0724,0988,10670,027.4,045.3,0.148,746.2,01.17,0.508
2014-04-09 04:02:00,3288E-2,5C000400,-0724,0987,10742,027.5,045.3,0.148,746.2,01.17,0.508
2014-04-09 04:03:00,3273E-2,5C000400,-0724,0986,10705,027.4,045.3,0.148,746.2,01.17,0.508
2014-04-09 04:04:00,3281E-2,5C000400,-0724,0986,10421,027.4,045.3,0.148,746.2,01.17,0.508
2014-04-09 04:05:00,3292E-2,5C000400,-0724,0987,10795,027.5,045.3,0.148,746.2,01.17,0.508
2014-04-09 04:06:00,3295E-2,5C000400,-0724,0988,10659,027.5,045.3,0.148,746.2,01.17,0.508
2014-04-09 04:07:00,3267E-2,5C000400,-0724,0986,10559,027.5,045.3,0.148,746.1,01.17,0.508
2014-04-09 04:08:00,3278E-2,5C000400,-0724,0986,10712,027.5,045.3,0.148,746.2,01.17,0.508
2014-04-09 04:09:00,3302E-2,5C000400,-0724,0987,10741,027.5,045.3,0.148,746.2,01.17,0.508
2014-04-09 04:10:00,3260E-2,5C000400,-0724,0986,10651,027.5,045.3,0.148,746.3,01.17,0.508
2014-04-09 04:11:00,3244E-2,5C000400,-0724,0986,10627,027.5,045.3,0.148,746.2,01.17,0.508
2014-04-09 04:12:00,3290E-2,5C000400,-0724,0987,10653,027.5,045.3,0.148,746.2,01.17,0.508
2014-04-09 04:13:00,3239E-2,5C000400,-0724,0987,10686,027.5,045.3,0.148,746.3,01.17,0.508
2014-04-09 04:14:00,3260E-2,5C000400,-0724,0986,10672,027.5,045.3,0.148,746.3,01.17,0.508
2014-04-09 04:15:00,3231E-2,5C000400,-0724,0988,10781,027.5,045.3,0.148,746.2,01.17,0.508
2014-04-09 04:16:00,3218E-2,5C000400,-0724,0987,10788,027.5,045.3,0.148,746.2,01.17,0.508
2014-04-09 04:17:00,3263E-2,5C000400,-0724,0986,10803,027.5,045.3,0.148,746.2,01.17,0.508
2014-04-09 04:18:00,3204E-2,5C000400,-0724,0987,10678,027.5,045.3,0.148,746.2,01.17,0.508
2014-04-09 04:19:00,3279E-2,5C000400,-0724,0986,10655,027.5,045.3,0.148,746.2,01.17,0.508
2014-04-09 04:20:00,3284E-2,5C000400,-0724,0986,10740,027.5,045.3,0.148,746.2,01.17,0.508